{"data":{"norad_id":52660,"intl_designator":"2022-053E","name":"STARLINK-4081","alt_names":[],"object_type":"PAYLOAD","status":"ACTIVE","operator":null,"country":"US","launch_date":"2022-05-18","launch_site_code":"AFETR","launch_vehicle":null,"mission":null,"orbit_class":"UNKNOWN","rcs_meters":null,"size_class":null,"mass_kg":null,"dimensions":null,"purposes":["comms"],"wikipedia_slug":null,"has_3d_model":false,"image_url":null,"decayed_at":null,"tle_current":{"epoch":"2026-05-25T01:29:48.597792Z","epoch_age_seconds":76640,"freshness":"FRESH","line1":"1 52660U 22053E   26145.06236803 -.00001284  00000+0 -62626-4 0  9999","line2":"2 52660  53.2147 171.2696 0000942  79.4643 280.6455 15.08822271222645","mean_motion":15.08822271,"eccentricity":9.42e-5,"inclination_deg":53.2147,"raan_deg":171.2696,"arg_perigee_deg":79.4643,"mean_anomaly_deg":280.6455,"bstar":-6.2626e-5,"rev_number":22264,"period_min":95.438676090433,"perigee_km":539.1459105177,"apogee_km":540.44924939256,"semimajor_km":6917.9345799551,"source":"CELESTRAK","updated_at":"2026-05-25T13:38:17.209744Z"}}}